sat.trackr.live / text

‹ back to catalog

STARLINK-30168

NORAD 57513 · 2023-113U

PAYLOAD ACTIVE UNKNOWN

§ Identity

Operator
Country
US
Launch date
2023-08-07
Launch site
AFETR
Launch vehicle
Mass (kg)
RCS (m²)

Purposes: comms

External: N2YO · Heavens-Above · Gunter

§ Orbital elements

Epoch: 2026-09-20T07:32:29.355360Z

Period
94.27 min
Inclination
43.0048°
Eccentricity
0.0001345
Mean motion
15.27578311 rev/d
Perigee alt
482.1 km
Apogee alt
484.0 km
Semi-major
6,861.2 km
B*
3.8405e-6
RAAN
356.6381°
Arg perigee
273.4182°
Mean anomaly
86.6515°
Rev number
17,328

§ Raw data

STARLINK-301681 57513U 23113U   26263.31422865 -.00000156  00000+0  38405-5 0  99982 57513  43.0048 356.6381 0001345 273.4182  86.6515 15.27578311173286

JSON: /api/v1/satellites/57513 · /tle

For live sub-satellite position, see the globe view (requires WebGL).

§ Visibility from observer

Set your observer location to see the next 7 days of passes ≥ 10°. The values pass through the URL so the page stays shareable.

No JS? Fill the form by hand. The geolocation button needs JavaScript.